Torna al catalogo

ATLAS 5 CENTAUR DEB

LostHEO
NORAD 44665·DEBRIS·🇺🇸 United States

Lanciato Oct 17, 2018 da Cape Canaveral Space Force Station

Loading…

Prossimi Passaggi (prossime 24 ore)

TLE

ObsoletoSource: Space-Track

Epoca: Aug 3, 2026, 05:27 UTC

1 44665U 18079AB  26215.22730635 -.00000127  00000-0  00000-0 0  9995
2 44665  12.7878  70.0214 4626615 242.6487  63.2457  1.68617322 44165

Traccia ATLAS 5 CENTAUR DEB in tempo reale con AllMySat

Download on the App Store